Flag for Austria Weather past 2 weeks in Fürstenfeld, Styria, Austria

Now
74 °F

Mild.


Feels Like: 74 °F
Forecast: 61 / 86 °F
Wind: No wind

Location: Murska Sobota

Current Time: Aug 3, 2015 at 9:53:52 PM

Latest Report: Aug 3, 2015 at 9:00 PM


Visibility: N/A

Pressure: 30.03 "Hg

Humidity: 81%

Dew point: 68 °F

Location of FürstenfeldLocation

Historic Weather in Fürstenfeld — Graph

°F

Fürstenfeld temperature yesterday

Maximum temperature yesterday: 80 °F (at 4:00 PM)
Minimum temperature yesterday: 63 °F (at 5:00 AM)
Average temperature yesterday: 70 °F

Past Weeks' High & Low Weather Summary

 TemperatureHumidityPressure
High95 °F (Jul 22, 4:00 PM)98% (Jul 30, 6:00 AM)30.10 "Hg (Jul 30, 6:00 AM)
Low51 °F (Aug 1, 4:00 AM)35% (Jul 31, 3:00 PM)29.72 "Hg (Jul 25, 3:00 PM)
Average71 °F77%29.93 "Hg
* Reported Jul 19 8:00 PM — Aug 3 8:00 PM, Fürstenfeld, Weather by CustomWeather, © 2015

Note: Actual official high and low records may vary slightly from our data, if they occured in-between our weather recording intervals... More about our weather records

Advertising

Fürstenfeld weather history for previous 24 hours

 ConditionsComfort  
Time TempWeatherWind HumidityBarometerVisibility
8:00 PM
Mon, Aug 3
80 °FPassing clouds.1 mph69%30.01 "Hg6 mi
7:00 PM83 °FWarm.1 mph54%30.02 "HgN/A
6:00 PM83 °FWarm.1 mph54%30.02 "HgN/A
5:00 PM83 °FWarm.2 mph54%30.03 "HgN/A
4:00 PM83 °FWarm.1 mph55%30.04 "HgN/A
2:00 PM81 °FScattered clouds.2 mph58%30.06 "Hg6 mi
1:00 PM79 °FWarm.2 mph63%30.07 "HgN/A
12:00 PM78 °FWarm.2 mph65%30.07 "HgN/A
11:00 AM75 °FMild.3 mph69%30.09 "HgN/A
10:00 AM73 °FMild.3 mph74%30.09 "HgN/A
9:00 AM71 °FMild.2 mph77%30.09 "HgN/A
8:00 AM68 °FScattered clouds.2 mph81%30.08 "Hg6 mi
7:00 AM65 °FOvercast.1 mph88%30.09 "Hg6 mi
5:00 AM64 °FMild.1 mph90%30.08 "HgN/A
4:00 AM64 °FMild.1 mph91%30.08 "HgN/A
3:00 AM65 °FMild.2 mph90%30.08 "HgN/A
2:00 AM65 °FMild.2 mph88%30.08 "HgN/A
1:00 AM65 °FMild.2 mph90%30.09 "HgN/A
12:00 AM65 °FMild.No wind90%30.10 "HgN/A
11:00 PM
Sun, Aug 2
66 °FMild.1 mph86%30.09 "HgN/A
10:00 PM68 °FMild.2 mph85%30.10 "HgN/A
9:00 PM71 °FMild.No wind78%30.09 "HgN/A
Weather by CustomWeather, © 2015

See weather overviewHow to use our weather pages